Current weather by "City, St" or "zip code"  
 

Current Conditions: N BAR Ranch Airport, MT

Overcast


54.0 F

Last Updated on Oct 21 2021, 10:55 am MDT
Humidity: 51%
Wind Speed: N 0.0 mph
Barometer 30.15 in
Dewpoint: 35.6 F
Visibility: 10.00 mi
Precip: --
Heat Index: NA
Wind Chill: NA
Current conditions at:

N BAR Ranch Airport, MT (KMVH)

Lat: 46.8381 Lon: 108.9368

Local Radar Image active severe weather and emergency alerts image image weather storm and storm spotter reports image weather observation monitoring service image
Local
Radar
Active
Alerts
Storm Reports Obs
Monitoring

Sign-up For Email & Text Message Weather Alert Notification Services



Advertise Here

Observation History for N BAR Ranch Airport, MT


Time Wind
(mph)
Vis
(mi)
Weather Precip (in) Temperature (F) Relative
Humidity
Wind
Chill
(F)
Heat
Index
(F)
Pressure
Air Dwpt altimeter
(in)
sea level
(mb)
Rmks
10:55 am MDT N 0.0 10.00 Overcast -- 54.0 35.6 51% NA NA 30.15 M
9:55 am MDT N 0.0 10.00 Overcast -- 50.0 35.6 58% NA NA 30.15 M
8:55 am MDT NW 4.6 10.00 Mostly Cloudy -- 50.0 35.6 58% 48 NA 30.16 M
7:55 am MDT W 16.1 G 27.6 10.00 Mostly Cloudy -- 54.0 32.0 44% 50 NA 30.16 M
6:55 am MDT NW 4.6 10.00 Overcast -- 43.0 32.0 66% 40 NA 30.14 M
5:55 am MDT W 8.1 10.00 Overcast -- 43.0 32.0 66% 38 NA 30.13 M
4:55 am MDT SW 4.6 10.00 Fair -- 41.0 30.2 66% 38 NA 30.13 M
3:55 am MDT NW 4.6 10.00 Fair -- 41.0 30.2 66% 38 NA 30.14 M
2:55 am MDT N 0.0 10.00 Fair -- 45.0 30.2 57% NA NA 30.13 M
1:55 am MDT NW 5.8 10.00 Fair -- 43.0 30.2 61% 39 NA 30.11 M
12:55 am MDT N 0.0 10.00 Fair -- 39.0 28.4 65% NA NA 30.10 M
11:55 pm MDT W 6.9 10.00 Fair -- 39.0 30.2 70% 34 NA 30.10 M
10:55 pm MDT W 6.9 10.00 Fair -- 37.0 30.2 75% 32 NA 30.09 M
9:55 pm MDT NW 6.9 10.00 Fair -- 41.0 32.0 70% 36 NA 30.09 M
8:55 pm MDT NW 8.1 10.00 A Few Clouds -- 43.0 32.0 66% 38 NA 30.07 M
7:55 pm MDT W 5.8 10.00 Fair -- 45.0 33.8 66% 42 NA 30.06 M
6:55 pm MDT 3.5 10.00 Fair -- 46.0 32.0 57% NA NA 30.06 M
5:55 pm MDT SW 4.6 10.00 Fair -- 50.0 32.0 50% 48 NA 30.04 M
4:55 pm MDT 5.8 10.00 Fair -- 50.0 33.8 54% 48 NA 30.05 M
3:55 pm MDT SW 11.5 10.00 Fair -- 48.0 32.0 54% 43 NA 30.05 M
2:55 pm MDT N 0.0 10.00 Fair -- 48.0 32.0 54% NA NA 30.05 M
1:55 pm MDT S 10.4 10.00 Fair -- 48.0 32.0 54% 43 NA 30.06 M
12:55 pm MDT E 8.1 10.00 Fair -- 45.0 32.0 61% 41 NA 30.08 M
11:55 am MDT 3.5 10.00 Fair -- 45.0 32.0 61% NA NA 30.10 M

Regional Weather Observation


Lewistown, Lewistown Municipal Airport, MT (KLWT)

Overcast
53.0 F

N BAR Ranch Airport, MT (KMVH)

Overcast
54.0 F

Roy, MT (K1OM)

Mostly Cloudy
56.0 F

Echo, MT (K1EM)

Mostly Cloudy
55.0 F

Delta, MT (K1DM)

Overcast
NULL F

Kilo - Harlowton, MT (K1KM)

Overcast
53.0 F

Advertise Here


Advertise Here